Orbital Elements at Epoch 2459200.5 (2020-Dec-17.0) TDB
Reference: JPL 19 (heliocentric ecliptic J2000)
Element | Value | Uncertainty (1-sigma) | Units |
e | .05943365184601693 | 6.2487e-08 | |
a | 2.433822073754339 | 1.16e-08 | au |
q | 2.289171139967673 | 1.5122e-07 | au |
i | 1.570427901842584 | 6.0961e-06 | deg |
node | 319.786767888028 | 0.0001585 | deg |
peri | 188.854525926165 | 0.00016476 | deg |
M | 92.65970260301526 | 4.202e-05 | deg |
tp | 2458843.539577838284 (2019-Dec-26.03957784) | 0.00016205 | TDB |
period | 1386.856943937956 3.80 | 9.9152e-06 2.715e-08 | d yr |
n | .2595797652912825 | 1.8558e-09 | deg/d |
Q | 2.578473007541006 | 1.229e-08 | au |
|
| | Orbit Determination Parameters
Additional Information
|